Wind_Speed
22 22 23 24 24 25 24 24 24 23 22 21 20 20 19 17 16 15 14 14 14 14 14 13 12 13 15 16 16 17 18 17 17 18 19 18 17 16 15 14 15 15 15 15 14 14 15 14 13 12 12 13 15 16 18 18 19 20 19 20 22 22 23 23 24 25 25 25 24 20 18 18 16 15 15 17 18 21 22 22 23 22 20 18 18
24 23 23 24 24 25 25 24 23 23 22 21 20 19 19 17 16 14 14 13 13 14 14 13 13 14 16 16 17 17 18 18 18 18 18 17 16 15 14 14 14 14 14 14 14 14 14 14 13 13 12 13 17 18 18 18 20 20 20 21 22 22 23 22 22 24 25 25 25 22 19 19 18 17 16 18 21 23 23 24 23 21 19 17 18
23 25 24 24 25 25 25 24 23 22 22 21 20 19 18 17 15 14 13 12 12 13 13 13 13 14 16 16 16 17 18 18 18 18 17 15 14 13 13 14 14 14 14 14 14 14 14 13 13 13 13 15 18 18 18 18 19 20 21 22 23 24 24 23 22 23 24 24 24 23 20 19 20 19 18 19 21 22 23 25 22 20 18 17 18
20 25 25 25 25 25 24 23 23 22 21 20 20 19 18 16 15 14 12 11 11 12 13 13 13 13 15 16 16 16 16 17 17 16 15 14 13 12 12 13 14 13 12 13 14 14 13 13 13 13 13 16 18 18 19 19 20 21 23 24 25 25 25 24 23 22 22 21 21 21 21 19 19 19 18 20 21 21 24 25 21 18 17 18 17
20 25 26 26 25 24 24 23 23 22 21 20 19 18 17 16 14 13 12 11 11 11 12 13 14 13 14 14 14 14 15 15 16 15 14 12 12 11 11 12 12 11 10 11 13 13 13 13 13 13 13 15 17 17 19 20 21 22 23 25 26 25 25 24 22 21 20 18 18 19 20 18 18 19 17 18 20 22 24 21 20 19 17 17 17
20 24 25 26 25 24 24 23 22 22 20 19 18 17 16 15 14 13 11 10 10 11 12 13 14 13 13 13 13 12 13 13 14 14 13 11 11 10 10 11 10 10 9 9 12 13 13 13 12 13 13 15 17 17 19 20 20 20 22 24 26 25 25 23 21 19 17 15 15 14 16 17 15 18 18 17 18 21 21 17 18 20 18 17 16
20 24 25 25 25 24 23 23 22 21 20 19 18 17 16 15 13 12 11 10 10 11 12 12 12 13 13 12 12 11 11 11 11 12 13 11 10 9 9 9 9 10 9 8 10 12 12 12 12 12 13 15 16 16 18 19 19 20 22 24 25 24 24 23 20 17 14 12 9 10 12 15 13 17 18 18 17 18 17 15 15 16 17 17 15
23 25 24 25 25 24 24 23 22 21 20 19 18 17 15 14 13 12 11 11 10 10 12 11 10 12 13 12 12 11 11 10 10 11 12 12 10 9 8 8 8 8 8 8 8 10 11 11 11 11 12 14 14 15 16 18 19 20 22 24 24 23 22 21 19 16 11 8 6 7 10 14 12 15 18 18 17 16 16 15 14 12 15 15 13
26 25 24 24 24 24 24 23 22 21 20 19 18 16 15 14 13 12 12 11 10 10 11 10 9 11 12 12 12 11 11 11 11 11 12 13 12 10 8 8 7 7 7 7 8 9 9 9 10 11 12 13 13 14 15 17 18 19 20 22 23 22 21 19 16 13 10 8 6 6 8 13 11 13 17 17 17 16 16 15 14 12 13 14 11
26 24 23 23 23 23 23 22 22 21 20 19 18 17 16 15 14 13 12 11 10 10 11 9 8 10 11 12 12 11 11 12 12 12 12 12 12 10 8 7 7 7 7 7 8 8 8 8 9 10 11 13 12 13 14 16 17 18 20 21 22 22 21 19 15 11 10 7 6 6 8 12 10 10 15 16 16 16 16 15 13 13 13 13 10
24 23 22 21 22 22 22 21 21 20 20 19 18 17 16 15 14 13 13 12 11 11 10 8 8 9 10 11 11 12 12 12 13 12 12 12 12 11 9 8 8 8 8 7 7 8 8 8 8 8 10 12 12 12 14 15 17 18 19 20 20 21 21 18 13 10 9 5 6 7 9 11 8 8 13 15 15 15 16 16 15 14 13 12 10
22 22 21 21 21 21 21 21 21 20 19 19 18 18 17 16 15 14 13 12 12 11 9 8 9 10 10 11 11 12 13 13 13 13 13 13 12 12 11 9 8 8 8 7 6 6 6 7 7 6 9 11 11 11 13 14 16 17 18 19 19 19 19 16 10 8 7 3 6 7 9 10 6 7 11 13 14 14 15 16 16 15 14 12 11
22 22 21 22 22 22 22 20 20 20 19 20 19 18 17 17 15 14 14 13 12 10 8 8 10 10 11 11 12 13 13 13 13 13 13 12 12 11 11 9 8 8 8 7 6 5 4 5 6 6 7 9 10 10 11 13 14 15 17 18 18 18 18 15 8 6 6 1 6 6 8 9 5 7 9 11 12 14 15 16 16 16 15 14 13
20 22 22 21 22 22 21 20 20 20 20 20 19 19 18 17 16 15 14 13 12 9 8 9 10 11 12 12 12 12 12 13 13 13 12 12 11 10 9 9 8 7 6 7 6 4 3 3 4 5 7 8 9 10 10 11 13 15 16 17 17 17 17 14 7 5 4 2 5 5 8 10 6 6 8 10 11 12 14 14 15 15 15 15 15
17 21 23 22 22 22 21 20 20 20 20 19 19 19 18 17 17 16 15 14 11 10 10 11 11 12 12 13 12 12 11 12 12 12 12 11 10 9 8 8 7 5 5 5 5 4 3 2 3 5 7 8 9 9 10 10 12 14 15 16 16 17 17 12 6 6 3 4 5 6 8 9 6 6 7 9 10 11 12 13 13 14 14 14 15
14 19 23 22 22 22 21 21 21 21 20 20 19 19 19 19 18 17 16 15 12 11 13 14 15 14 13 12 12 11 10 10 10 11 11 10 10 9 7 6 5 4 4 4 4 4 3 3 3 4 6 7 8 9 9 9 10 13 15 15 15 15 15 12 6 4 2 4 5 5 7 8 7 5 6 8 9 10 11 11 12 12 13 13 14
13 17 21 22 21 22 22 22 21 21 20 20 19 20 20 20 19 18 17 15 13 12 13 14 16 16 14 13 11 10 9 9 10 9 10 10 9 8 7 5 5 4 4 4 4 3 2 2 3 4 4 5 7 8 8 8 9 11 13 14 15 15 14 12 6 4 3 2 4 4 6 9 8 6 4 6 7 8 9 10 11 11 12 12 13
13 16 20 21 21 22 22 22 21 21 20 19 19 20 20 20 19 18 17 14 13 13 13 13 14 16 15 14 12 10 9 9 10 10 9 9 9 7 6 5 5 5 5 5 5 4 3 3 3 4 4 5 5 6 7 7 8 10 12 14 15 14 14 11 6 3 2 2 4 4 6 10 9 7 4 4 5 7 8 9 10 10 11 11 12
13 16 20 21 22 22 21 21 20 20 20 19 20 19 19 19 17 17 16 13 13 14 13 14 16 16 15 14 12 11 9 9 9 10 9 8 7 6 6 6 6 6 7 6 6 5 4 4 4 4 4 4 4 5 7 6 7 9 12 15 14 14 13 9 6 4 1 4 5 6 7 10 10 8 6 3 4 5 6 7 8 9 10 10 11
14 17 20 22 22 21 21 20 20 20 20 19 19 18 19 18 16 16 15 14 15 12 12 15 18 18 16 14 12 12 11 10 9 9 9 8 7 6 6 6 6 8 8 7 6 6 5 5 4 5 5 5 5 6 7 6 6 8 12 15 14 14 11 5 5 5 3 5 6 7 7 9 9 9 7 3 4 4 5 6 7 7 8 9 9
16 20 21 21 20 20 20 21 20 20 19 19 18 18 18 18 17 16 15 15 13 9 12 17 19 18 17 15 13 12 12 11 9 8 8 7 6 6 6 6 7 9 9 8 7 7 6 5 5 5 6 6 6 7 7 6 6 8 12 14 15 13 9 4 4 4 5 7 6 7 7 7 9 9 7 4 2 2 3 4 5 6 7 8 8
18 20 21 20 19 20 20 20 19 18 19 18 18 17 18 17 15 15 15 14 10 9 17 20 19 18 17 16 14 13 12 12 9 8 8 7 6 6 6 6 9 9 8 8 8 8 7 6 6 5 5 6 7 8 7 6 5 6 9 14 15 13 9 4 3 1 6 7 6 6 6 6 8 8 7 6 3 1 2 3 4 4 5 6 7
19 20 20 19 18 19 18 17 17 16 17 17 17 17 17 16 14 15 15 12 9 11 20 19 18 17 16 17 15 13 12 10 9 8 8 7 7 7 7 8 9 8 8 8 9 9 8 7 7 8 8 10 11 10 9 8 7 5 6 12 14 10 7 3 1 2 6 6 6 6 6 7 8 7 6 5 4 2 1 3 3 4 4 5 5
19 19 19 19 17 18 17 16 14 14 15 16 16 16 16 16 15 16 14 11 8 14 21 19 18 17 16 17 14 13 11 10 10 8 7 6 6 6 6 8 8 7 7 8 8 8 7 7 9 12 13 13 12 10 8 8 9 7 4 10 11 7 5 2 2 4 6 6 7 7 6 6 7 6 5 5 4 4 1 3 4 4 4 4 4
19 19 20 19 18 17 16 15 13 13 15 15 15 15 15 15 16 16 12 11 9 15 21 19 18 16 16 15 13 12 12 11 10 8 7 6 5 4 5 6 5 6 6 6 7 7 7 8 9 12 13 13 11 9 7 6 6 7 5 7 8 5 4 4 5 6 7 7 7 6 5 4 4 5 5 4 4 4 3 0 4 4 4 4 4
20 18 19 19 19 17 14 13 13 14 15 15 14 14 15 16 17 15 11 10 10 14 19 20 18 16 15 14 12 11 10 10 8 7 7 6 5 4 3 3 3 3 5 5 6 6 7 7 8 9 10 11 11 9 8 6 3 5 4 4 4 1 4 6 7 7 8 8 8 6 5 3 3 4 3 3 3 4 3 2 2 4 5 5 5
20 18 18 19 19 17 13 13 14 15 16 14 13 13 15 16 15 13 12 11 12 16 20 19 18 16 14 13 12 10 9 9 8 7 7 6 5 4 3 2 2 2 3 3 4 5 5 5 6 6 7 8 8 9 8 7 6 5 4 5 3 4 6 8 8 7 7 7 7 6 4 4 3 3 3 3 3 3 3 3 1 4 6 6 6
19 18 19 19 19 16 13 13 14 16 15 14 13 14 15 15 13 12 13 13 16 20 19 17 16 14 13 13 12 10 10 9 7 7 6 6 5 4 4 3 2 2 2 2 2 3 3 4 4 6 7 5 6 8 7 7 9 10 9 7 6 7 8 8 8 7 7 7 7 6 5 4 3 2 2 3 3 3 3 3 1 3 6 6 6
19 20 20 20 19 15 13 14 16 16 15 15 15 16 16 15 14 13 13 15 18 18 16 16 15 14 14 13 12 11 10 9 8 7 6 6 6 5 4 4 3 3 3 2 2 2 2 3 4 5 6 5 7 7 6 7 9 11 11 9 9 10 9 9 8 6 7 8 7 6 5 4 3 2 2 3 3 3 3 3 3 2 5 6 7
21 22 21 20 18 14 15 16 16 15 16 17 17 16 16 15 15 13 14 16 17 16 15 15 14 15 14 13 12 12 11 10 9 7 7 7 6 5 5 5 5 4 4 4 3 3 3 3 4 4 5 6 8 7 6 7 7 9 12 10 11 10 8 9 9 7 5 6 8 8 5 3 2 1 2 2 2 3 3 3 3 4 4 4 5
21 20 19 19 17 14 17 17 15 16 17 17 18 17 16 14 15 16 16 17 17 17 15 15 15 14 12 11 11 11 11 10 9 7 7 7 6 5 6 5 5 5 5 5 5 5 5 4 4 4 5 6 7 7 6 7 7 8 11 10 10 10 8 8 10 8 7 6 5 5 4 2 2 2 2 2 2 2 3 3 3 4 4 4 4
19 18 17 18 16 15 19 20 17 17 17 18 18 17 16 14 15 17 17 17 18 18 15 14 14 12 10 9 8 8 8 9 8 7 7 8 6 5 5 4 4 4 5 6 5 6 6 5 4 4 5 5 6 6 7 6 6 7 9 10 9 10 8 7 10 8 7 7 6 4 2 0 1 2 2 2 2 3 3 2 3 3 4 5 5
17 16 16 16 17 16 20 22 19 19 19 18 17 17 16 15 15 16 18 19 19 17 14 12 12 11 9 8 9 8 8 8 8 8 9 8 6 4 3 3 3 3 4 4 5 5 5 5 5 4 4 4 5 6 6 5 6 6 7 8 7 7 8 7 8 7 5 6 7 7 6 3 2 0 1 2 3 3 3 3 3 4 4 6 5
14 13 15 16 18 19 21 22 20 19 20 18 16 17 17 16 15 15 17 19 18 15 13 11 11 11 10 9 9 9 9 9 9 9 9 8 7 5 3 3 2 2 3 3 4 4 4 4 4 4 3 4 5 7 7 6 6 6 6 6 5 4 5 4 3 3 3 4 4 5 6 5 4 2 2 3 3 3 4 4 4 4 4 5 5
9 11 14 17 20 22 22 22 20 20 21 19 18 19 18 17 16 15 16 17 17 14 11 10 11 11 10 9 8 9 10 9 9 10 10 8 7 5 4 3 2 3 3 3 3 3 2 3 4 4 3 4 6 6 6 7 6 6 6 4 3 2 3 5 5 5 7 6 3 3 6 6 6 5 4 4 4 4 5 5 4 5 5 5 5
8 9 17 20 21 22 22 22 21 21 21 20 20 20 20 19 17 16 16 16 14 11 10 10 10 10 9 8 8 9 10 10 10 10 9 8 7 5 4 4 4 3 3 3 3 3 3 3 4 3 4 5 6 6 6 6 6 6 5 3 2 1 3 6 5 5 7 7 5 5 6 8 7 7 6 5 5 5 7 7 6 6 5 5 5
4 11 21 20 20 21 23 24 23 22 21 21 21 20 20 19 17 16 16 15 12 10 10 10 10 10 10 9 9 9 9 8 9 9 9 7 6 5 5 5 5 4 4 4 3 3 3 3 3 3 4 5 5 5 4 4 5 6 5 4 3 3 5 6 5 4 4 4 5 6 8 9 8 8 7 7 6 7 8 7 5 5 6 6 6
11 21 23 19 21 23 24 24 24 23 22 22 21 20 19 17 15 15 15 15 13 12 12 12 12 11 11 11 9 8 8 8 8 8 8 7 6 6 5 5 5 4 4 3 3 4 3 3 3 3 4 4 3 3 2 2 5 6 6 6 5 4 5 5 4 3 3 3 4 5 8 9 9 8 8 8 8 7 5 4 4 4 5 7 8
22 25 22 21 23 24 25 25 25 25 24 22 20 20 18 17 16 16 16 16 15 13 13 13 13 12 12 11 10 9 9 10 9 9 8 7 6 5 4 4 4 3 3 3 3 3 3 2 3 4 4 4 4 2 1 2 4 5 6 7 6 4 5 4 3 3 3 4 4 5 8 10 9 7 8 9 8 6 4 4 5 4 5 6 6
26 22 21 24 25 27 27 26 25 25 25 22 21 21 20 19 19 19 19 19 17 14 13 13 12 11 13 12 12 11 10 11 10 9 9 7 6 5 4 4 4 4 3 3 3 3 4 3 3 5 5 5 4 3 3 4 5 5 6 6 6 5 4 3 3 4 3 5 5 5 8 10 8 6 8 10 8 5 5 6 6 6 6 4 3
23 20 23 27 28 28 28 27 26 26 24 23 23 22 21 21 21 22 21 20 18 16 14 13 12 13 14 13 12 12 10 10 9 8 8 8 8 7 6 6 6 6 5 5 5 5 5 5 4 5 6 5 4 4 5 5 5 6 6 6 5 6 5 3 4 6 6 6 6 6 7 8 8 7 8 10 9 7 6 7 8 8 7 4 3
24 24 28 30 30 30 28 28 27 25 23 23 24 24 22 23 24 24 23 21 19 17 16 15 14 13 13 13 12 11 10 10 10 10 9 9 9 8 7 8 8 7 7 7 6 6 6 6 5 5 6 5 5 5 5 6 6 6 7 7 7 7 6 4 4 6 7 6 6 6 6 7 8 8 9 10 10 9 8 8 9 9 8 7 6
27 31 33 34 33 31 29 27 26 25 24 24 25 24 24 23 24 25 25 23 20 17 17 16 15 14 13 14 13 12 11 10 10 10 10 9 9 8 8 8 8 7 7 7 7 6 5 4 5 6 5 5 6 6 6 6 5 5 7 7 7 9 9 7 6 7 7 7 8 8 8 8 8 9 9 9 9 8 9 9 9 9 9 9 8
31 35 36 35 34 31 29 29 27 26 26 26 25 25 25 23 22 24 25 23 21 18 17 16 15 15 15 15 14 13 11 10 10 9 9 9 9 8 8 9 9 8 7 8 8 7 5 3 4 5 5 5 6 6 5 5 5 5 6 7 8 11 11 10 9 9 9 9 9 10 9 9 9 10 8 7 7 6 7 8 7 8 9 9 8
34 35 35 34 33 30 28 28 28 28 27 26 25 26 26 25 24 25 25 23 22 21 21 20 18 18 17 15 13 12 11 10 9 7 6 7 8 7 7 9 10 9 8 7 6 6 6 5 5 6 6 5 6 6 5 5 6 7 6 8 8 8 13 14 11 10 10 10 10 10 11 10 10 9 7 7 7 6 6 6 6 7 8 8 7
33 32 31 32 30 29 27 27 26 26 26 25 25 26 26 27 27 27 27 25 23 23 23 21 20 20 20 19 16 14 12 10 9 8 8 8 9 10 9 9 8 8 8 7 8 7 6 5 5 6 6 6 6 6 7 6 7 7 6 7 5 8 16 18 16 14 12 12 13 13 13 12 10 8 7 7 7 6 6 5 6 7 6 6 6
30 29 30 30 28 28 28 27 26 25 26 26 25 25 26 27 27 26 25 23 23 23 21 20 21 22 22 20 19 17 15 12 9 8 10 11 11 11 10 8 6 5 5 7 10 9 7 5 5 5 5 6 7 7 9 8 8 7 6 7 7 10 14 15 17 19 17 15 15 15 15 12 10 8 7 7 6 6 6 6 6 6 6 5 5
27 27 29 28 27 28 28 27 26 26 26 26 25 24 24 25 24 23 23 21 21 22 22 21 21 21 21 19 19 18 16 13 9 9 11 13 14 12 9 7 6 4 3 5 9 9 7 6 6 6 7 8 8 10 12 12 11 11 10 9 10 11 12 11 13 17 19 19 16 15 14 12 11 10 10 9 8 7 6 5 5 5 6 6 5
25 27 27 26 27 27 28 28 27 27 26 26 25 24 22 23 23 23 23 22 21 23 22 19 17 18 19 18 17 17 16 13 11 10 11 14 16 13 9 10 9 6 4 5 8 8 8 9 9 9 10 11 11 13 16 15 14 14 13 12 12 13 14 13 13 13 15 19 18 15 14 14 13 12 11 11 9 7 5 5 5 5 6 6 6
24 25 25 26 27 28 29 28 28 29 28 27 27 25 23 23 24 25 26 24 23 23 21 17 16 17 18 17 16 16 15 14 13 11 11 16 19 14 12 14 12 7 6 8 9 10 10 10 11 11 11 12 14 15 16 14 13 14 13 11 12 15 16 16 16 14 14 17 19 19 18 18 18 15 12 10 9 8 7 8 8 7 7 8 8
23 25 26 27 29 30 29 29 30 30 29 27 26 25 24 25 25 26 27 25 23 22 20 18 18 18 18 18 16 15 16 16 15 13 15 20 21 17 15 15 12 7 7 10 11 11 11 11 11 11 12 13 14 15 15 14 14 15 14 11 11 12 13 14 16 15 17 20 24 25 24 22 21 18 15 12 10 10 10 11 12 12 11 11 12
Wind_Direction
153 157 153 149 146 144 144 145 146 146 146 146 147 148 147 146 143 141 138 133 128 121 114 109 106 104 109 119 128 131 134 138 139 142 147 150 150 146 144 141 136 133 131 131 130 128 123 118 114 105 102 111 113 107 102 98 97 98 98 94 88 85 82 78 74 69 65 61 54 53 58 58 60 65 67 69 84 97 102 110 108 102 98 92 85
153 158 154 149 147 144 146 146 147 146 147 148 148 150 149 148 145 143 140 137 132 123 117 114 108 106 107 114 121 128 133 136 138 141 143 145 144 142 141 138 134 133 133 132 131 128 123 121 115 105 103 110 109 104 100 96 95 95 94 90 86 82 78 75 72 66 60 58 52 47 52 60 60 64 70 70 88 101 104 109 108 102 97 93 87
153 156 153 149 148 146 147 147 147 147 148 150 150 152 151 149 147 145 143 141 136 125 122 119 112 109 108 113 119 123 130 134 136 137 140 142 141 138 135 131 130 133 136 136 133 128 126 123 116 107 104 103 102 100 97 93 92 91 91 88 83 77 72 67 64 61 56 52 48 42 40 52 60 64 72 75 89 101 107 111 108 103 100 95 87
157 156 151 150 148 147 147 148 148 149 150 151 152 153 152 150 148 148 147 145 140 128 123 121 115 112 110 112 116 120 126 132 135 137 139 140 140 139 135 132 133 136 139 140 135 131 130 125 118 112 107 104 102 99 95 92 92 92 90 86 81 76 71 65 59 55 51 46 43 39 31 38 58 63 70 78 85 98 111 113 109 106 105 100 90
158 157 153 150 147 148 148 149 149 151 152 152 153 153 152 151 151 152 151 147 141 130 125 124 120 117 114 113 114 118 123 129 135 138 140 142 144 145 143 140 139 136 133 141 139 136 133 128 123 116 110 105 103 99 95 93 94 94 92 87 83 78 74 69 63 57 48 41 38 35 23 26 54 64 70 79 80 96 112 112 112 115 113 107 95
157 160 154 150 148 148 148 150 152 152 153 153 154 154 153 153 154 155 154 150 144 133 128 126 124 125 122 119 118 119 124 129 136 140 142 145 151 155 156 151 147 140 134 143 146 143 138 133 128 121 113 104 102 100 97 96 97 96 93 89 86 82 79 75 71 66 56 45 35 29 18 16 50 67 70 78 79 95 109 108 113 121 124 118 105
159 160 155 150 148 148 150 152 153 153 152 153 153 153 154 155 157 158 156 153 147 139 135 130 130 135 133 130 128 128 131 133 139 142 142 144 153 162 165 161 157 153 146 147 150 149 145 140 134 127 117 106 102 101 100 99 99 97 95 92 89 86 83 79 75 75 72 67 46 26 16 12 46 71 70 77 79 87 100 103 108 118 128 129 118
159 159 155 150 149 149 152 152 152 151 151 152 153 154 155 156 158 160 160 157 150 144 144 139 138 145 142 140 139 138 140 140 144 148 147 143 148 161 169 167 161 159 155 151 150 152 151 146 138 132 122 111 106 103 103 102 100 99 98 95 92 89 87 83 76 75 76 76 52 23 16 11 37 73 73 75 77 81 89 97 98 104 124 134 129
158 158 155 152 150 150 151 150 149 148 149 150 151 153 155 158 161 163 163 160 153 150 154 151 148 152 148 147 149 148 149 147 147 152 154 148 147 158 167 162 156 156 159 157 155 155 155 152 146 140 127 116 113 110 107 105 104 101 100 97 95 92 89 83 76 72 65 55 27 1 1 6 28 68 75 76 76 78 81 90 94 96 116 133 134
157 156 155 153 150 148 148 147 147 147 148 148 149 153 157 161 164 166 164 161 157 159 161 160 155 153 152 152 153 156 157 152 149 152 154 151 148 151 157 154 149 146 150 159 163 163 161 160 156 148 135 124 120 118 113 109 107 104 101 100 98 96 91 85 81 74 66 52 9 346 351 4 27 62 75 79 76 77 80 86 89 89 103 120 131
155 156 155 152 149 147 148 147 147 147 147 148 152 156 159 162 164 165 163 162 162 167 167 162 155 152 153 155 156 159 160 155 151 154 155 155 151 147 152 157 150 138 136 146 159 167 169 168 163 154 144 133 128 125 119 115 111 107 103 102 101 99 94 90 90 80 77 59 3 357 352 1 29 60 76 81 79 79 80 83 83 86 95 102 111
154 157 154 152 149 148 150 149 149 147 148 151 155 158 160 163 164 165 164 165 168 172 169 159 152 151 154 154 156 157 157 155 151 154 157 157 156 152 152 158 153 141 134 135 145 161 176 173 167 162 154 144 137 132 125 121 115 111 107 107 105 101 97 94 94 85 87 70 352 354 350 358 33 61 74 84 84 84 80 82 82 83 88 89 94
157 158 156 154 151 152 153 152 152 151 153 156 159 160 162 164 165 167 167 170 173 175 165 154 152 151 152 150 152 153 152 151 149 152 155 156 158 155 150 154 150 141 136 136 140 152 179 182 174 171 166 158 149 144 135 128 121 116 115 113 109 104 101 97 99 91 92 23 339 355 5 8 36 65 72 84 87 86 83 82 82 82 82 83 85
156 162 160 158 154 155 155 155 156 156 159 159 161 162 164 165 167 169 170 175 176 175 163 153 150 148 149 149 149 150 150 149 149 152 156 155 156 156 150 149 143 135 129 131 137 146 175 187 181 179 180 176 165 158 147 136 127 122 121 118 114 109 105 107 121 106 98 313 345 6 6 6 22 65 73 82 85 86 87 86 85 84 82 82 82
151 163 163 160 156 156 157 159 161 162 164 163 164 164 165 166 169 171 173 178 178 172 158 149 145 147 150 149 149 151 155 153 151 155 157 157 157 155 148 142 132 122 110 114 125 138 156 150 158 175 186 188 180 173 161 146 131 126 126 123 119 114 111 117 129 109 98 305 339 346 346 359 19 57 69 78 83 83 86 87 86 86 85 84 83
149 160 164 161 160 159 160 163 166 168 168 167 166 166 167 167 169 173 176 178 177 167 156 155 152 153 156 153 154 156 157 156 152 155 156 155 156 154 145 134 122 110 107 107 114 125 135 118 129 153 175 188 189 188 175 156 138 130 129 126 122 120 116 114 116 125 149 297 330 354 6 14 19 39 65 74 81 84 84 87 87 88 87 85 84
150 158 165 165 164 163 165 168 171 172 172 170 169 169 171 171 172 174 179 182 178 167 162 167 160 157 160 157 158 160 155 151 149 153 154 153 158 158 149 134 122 111 105 97 93 100 111 109 115 128 148 178 190 199 192 168 147 138 133 129 126 124 120 117 142 168 153 295 330 7 14 12 18 29 56 75 78 85 85 86 86 86 86 84 83
147 159 167 169 169 169 170 170 173 174 175 173 172 173 174 175 175 178 182 185 179 169 169 173 164 159 163 159 157 162 155 146 146 147 148 154 161 162 151 131 117 103 92 86 85 91 103 113 116 123 142 166 180 194 198 179 153 144 138 134 130 127 123 126 168 174 104 294 313 323 341 357 14 19 24 80 81 82 87 86 86 86 87 86 84
147 158 170 175 174 174 173 172 174 176 178 177 177 176 175 177 178 183 183 184 184 176 175 170 164 164 165 162 157 157 153 147 146 145 145 148 150 149 137 122 114 102 91 85 85 92 103 120 132 137 148 158 160 169 181 176 153 146 143 142 135 129 124 130 176 172 161 264 290 308 333 352 4 12 10 73 89 80 87 87 88 89 89 89 87
150 162 174 180 177 177 175 174 177 179 182 182 182 178 176 179 180 186 185 186 188 185 180 166 162 166 167 165 160 156 155 154 151 149 146 138 135 133 126 120 114 100 90 86 87 93 101 112 132 144 152 151 142 142 149 153 144 141 148 149 141 130 125 143 185 176 218 260 285 308 334 349 1 11 6 44 97 91 89 90 91 91 91 90 89
158 167 176 181 180 181 178 178 180 181 184 184 184 182 181 184 185 187 184 187 192 191 176 162 161 165 166 167 163 159 159 161 159 152 144 136 135 130 129 124 105 92 90 92 95 100 103 110 123 139 148 143 135 131 130 137 137 137 148 152 146 133 119 141 163 166 233 266 289 313 335 351 8 14 3 13 74 105 110 102 94 92 92 93 91
165 168 175 179 180 181 181 182 184 184 186 185 185 186 187 187 187 185 183 188 204 191 165 159 163 165 166 168 167 163 162 165 162 153 148 143 142 142 144 124 100 95 98 99 100 104 107 111 113 119 129 126 119 115 112 117 124 134 149 153 150 136 111 121 135 187 255 270 289 309 322 339 2 11 5 2 16 78 156 128 107 102 95 94 94
167 165 168 175 180 181 181 183 184 186 187 185 185 187 189 186 185 184 183 196 218 181 158 157 164 167 170 169 168 165 163 167 162 157 156 149 151 159 147 117 105 106 108 106 107 110 112 116 112 106 103 106 109 110 109 101 94 106 152 158 159 151 127 133 154 273 270 273 282 298 306 317 343 0 8 2 5 359 201 161 137 121 111 101 97
168 164 163 170 179 181 180 181 183 187 186 183 185 190 190 186 185 183 187 209 213 163 154 160 166 170 174 169 168 164 165 171 166 160 160 159 162 162 132 110 111 114 117 116 115 114 114 117 116 112 108 111 114 111 110 92 78 78 130 160 161 169 170 223 280 266 270 272 272 284 297 310 329 344 4 2 10 9 341 172 162 147 139 126 112
173 169 167 170 178 181 179 179 182 187 183 179 183 187 188 186 184 184 193 207 186 153 152 160 168 174 175 171 172 172 174 176 172 168 168 171 165 149 119 110 116 120 124 118 115 111 103 108 116 123 126 131 132 122 111 85 67 76 94 153 156 164 197 240 253 254 267 274 273 276 289 313 328 333 352 357 17 28 5 104 167 168 164 154 142
179 176 173 171 174 177 178 183 185 185 179 175 179 177 181 185 186 192 201 195 175 165 161 160 165 170 173 176 179 180 181 180 179 175 169 169 160 147 127 115 125 130 126 117 119 112 105 117 122 127 139 144 141 135 128 111 99 97 95 153 163 206 237 240 236 245 265 274 277 273 280 305 323 325 333 335 11 45 23 8 181 184 184 178 170
178 175 171 168 170 171 178 188 182 181 177 172 173 173 183 189 194 200 196 178 164 169 167 161 163 167 174 182 184 185 187 186 181 175 170 167 160 153 142 133 147 148 134 130 134 122 120 139 130 127 150 156 143 140 139 134 152 168 169 174 190 249 249 248 246 247 262 274 280 284 290 305 313 319 329 322 347 38 45 26 202 193 191 190 186
180 172 165 164 164 163 172 182 179 180 174 166 168 175 186 188 188 186 175 163 155 160 164 163 164 169 179 182 182 187 193 193 183 178 179 171 168 166 165 181 196 200 206 174 153 141 132 147 146 148 168 177 158 154 151 158 174 181 184 185 186 209 229 243 257 263 275 283 283 296 300 299 307 312 322 316 327 18 53 52 58 191 193 193 192
180 167 159 159 156 156 164 176 182 180 169 164 169 173 177 173 166 164 161 157 154 156 160 163 170 181 185 183 183 192 199 200 192 187 191 185 183 184 187 203 222 234 225 216 219 206 170 166 175 177 183 183 176 174 171 180 187 185 190 197 190 193 210 222 235 254 278 290 288 295 294 284 299 315 326 326 336 13 49 66 78 149 184 193 195
170 162 159 157 149 151 158 173 183 172 165 167 168 166 165 165 156 150 148 149 152 154 155 163 180 191 191 188 187 192 198 202 198 194 203 203 194 197 208 213 224 235 224 229 237 234 230 200 201 209 195 186 187 186 187 194 191 188 197 201 198 204 211 209 210 211 231 274 284 279 270 269 303 356 3 2 13 27 45 64 90 124 156 177 187
170 163 162 155 143 149 154 167 177 166 166 166 165 162 160 162 152 141 138 143 150 151 154 167 181 188 189 187 184 190 198 203 206 207 213 215 213 214 218 219 224 233 228 228 231 229 228 213 213 221 201 192 192 189 196 202 190 192 206 207 209 219 223 214 210 209 218 231 244 240 215 219 312 11 31 49 68 67 64 73 90 112 142 147 158
177 163 157 155 151 159 158 162 170 165 165 162 162 158 154 156 147 139 138 145 148 148 159 170 176 182 189 194 196 203 207 210 222 230 230 228 229 222 218 222 217 229 235 230 232 230 228 223 222 227 208 200 203 201 200 200 195 203 215 219 228 229 228 230 222 225 244 230 212 208 189 184 302 18 58 97 122 124 95 90 90 90 126 136 146
175 151 140 155 163 164 159 160 166 167 163 161 161 153 150 149 145 143 143 148 150 153 167 170 175 185 192 206 211 214 215 219 229 233 236 237 232 225 227 230 211 223 234 232 231 224 224 226 223 224 213 208 215 214 210 207 205 208 216 225 233 228 227 237 227 227 256 240 222 234 246 231 210 104 110 131 135 128 96 81 83 78 99 126 145
166 142 137 158 165 162 160 162 167 164 158 161 161 152 149 147 147 149 147 153 159 163 173 174 181 188 194 209 214 218 217 217 220 220 228 230 222 223 234 242 231 213 212 211 211 208 214 219 224 225 219 223 221 216 217 216 211 205 210 222 229 231 222 207 175 170 203 217 200 219 230 206 176 164 158 146 133 123 99 87 93 95 88 104 123
121 124 154 170 163 158 161 164 163 156 153 158 158 150 147 144 148 153 150 157 164 165 172 178 186 191 198 206 213 218 212 211 214 217 222 219 216 222 228 234 216 188 187 192 197 199 209 210 218 214 207 226 221 215 214 213 215 212 214 227 235 244 195 161 117 128 171 177 158 193 208 187 172 167 163 153 138 121 107 101 107 111 94 95 114
91 122 163 171 162 158 161 162 158 154 154 153 150 148 146 141 145 152 154 160 166 168 173 179 188 198 200 198 210 211 205 211 217 217 215 212 220 223 219 220 201 183 185 202 204 208 219 213 212 199 196 208 212 219 218 214 217 216 218 223 202 164 158 155 123 127 167 178 186 198 188 177 178 173 165 159 142 124 119 117 115 115 111 108 119
142 158 163 167 167 163 161 160 158 158 158 155 152 149 148 143 142 150 156 165 175 175 174 175 178 185 181 182 199 201 195 202 210 211 206 209 223 217 205 201 196 193 195 212 211 204 214 207 192 188 195 196 203 220 220 215 215 210 213 203 186 171 160 155 137 127 142 173 188 190 184 180 179 174 169 161 143 136 135 134 132 124 121 119 122
153 163 165 168 170 164 161 159 158 161 163 163 160 152 146 140 140 152 159 167 175 173 170 168 163 163 161 168 184 186 178 176 189 198 193 202 210 196 187 180 187 187 177 199 198 183 191 185 167 166 190 200 202 208 198 194 197 194 194 189 188 186 173 160 147 143 142 164 169 172 182 183 176 173 176 170 156 157 157 157 152 124 119 124 120
148 161 167 169 170 164 162 160 159 162 162 164 161 151 146 138 141 153 157 163 169 168 167 161 154 149 149 158 166 165 161 162 176 184 175 183 186 167 157 152 163 162 143 158 167 162 161 155 150 157 185 209 210 199 166 155 163 173 180 176 169 164 168 167 155 155 172 182 175 165 173 179 180 179 184 181 175 180 185 182 163 143 141 130 110
153 167 170 171 172 168 165 165 165 162 159 159 156 151 149 144 147 153 154 160 165 164 160 152 147 146 150 159 163 159 155 157 167 170 161 161 155 143 137 133 133 130 131 140 144 145 142 140 152 167 184 199 206 198 175 156 148 156 162 154 138 121 123 148 153 141 149 173 176 165 162 169 178 185 192 194 193 190 187 191 179 170 174 154 119
163 174 173 173 174 172 171 171 168 162 160 159 155 152 152 149 149 151 154 158 162 160 153 145 147 151 152 153 153 151 148 147 150 149 142 136 135 133 124 118 115 116 121 123 126 132 135 144 160 177 187 184 192 198 188 177 170 164 155 140 115 87 81 102 127 131 141 167 178 172 168 174 183 189 195 196 194 187 181 188 187 185 195 198 184
164 167 169 171 173 174 174 174 168 165 166 161 155 154 154 151 148 150 150 151 155 156 153 152 154 153 147 140 134 131 134 137 138 138 134 128 130 130 125 122 120 121 125 123 123 125 130 143 152 166 179 173 173 188 190 182 178 175 162 142 111 89 81 94 118 131 139 154 166 163 163 172 184 192 194 192 190 185 177 183 189 192 202 206 196
160 163 169 172 174 174 174 172 167 166 167 161 157 154 149 147 147 148 148 148 153 155 155 156 153 146 140 133 124 115 120 131 138 141 139 135 136 140 140 138 136 137 135 132 128 120 125 153 159 158 163 167 172 179 186 181 174 171 161 148 131 117 98 92 112 120 127 145 156 153 151 155 167 180 184 184 185 181 178 184 191 195 201 207 203
163 167 173 174 174 174 172 169 166 168 166 160 156 150 144 143 144 147 149 153 157 158 154 151 147 144 141 137 128 119 121 131 137 140 141 141 144 147 147 141 136 134 133 136 134 119 115 146 160 156 155 170 179 170 172 182 175 167 157 149 147 131 111 111 120 112 117 139 148 148 151 153 157 164 167 171 172 170 177 184 188 197 201 204 203
168 173 177 175 174 173 171 169 169 169 166 161 157 151 148 149 150 153 155 156 156 154 150 147 148 146 141 138 133 132 134 138 145 156 161 151 144 137 136 143 140 135 136 147 150 130 123 140 146 148 156 166 172 159 156 173 176 177 163 147 149 138 129 129 120 105 118 139 139 138 146 150 153 158 154 154 159 158 168 176 180 195 200 200 203
171 176 176 175 175 174 173 171 170 170 167 165 163 160 158 158 161 162 162 161 155 154 153 152 153 148 144 145 148 151 156 163 171 172 164 151 137 120 111 126 143 147 152 166 171 158 154 168 153 140 152 155 149 145 143 148 159 167 156 141 144 150 145 137 122 111 114 122 122 126 138 146 149 152 146 142 149 155 162 169 176 187 194 199 204
174 176 176 179 180 177 176 174 172 171 170 169 168 169 168 167 169 171 173 169 157 155 159 155 151 147 147 152 155 158 166 175 176 161 151 146 139 125 113 114 126 141 157 167 173 175 173 169 147 131 135 136 135 138 132 124 129 135 132 127 128 142 150 148 136 128 121 119 119 122 128 132 136 144 148 145 146 153 158 165 177 187 188 183 180
173 174 176 182 184 180 178 176 174 171 172 174 172 173 174 173 173 174 175 168 154 153 157 154 149 149 151 154 155 158 167 176 174 165 161 153 144 140 140 140 127 119 128 145 159 165 154 137 124 119 119 119 121 122 114 103 106 116 119 124 131 138 146 150 148 141 135 131 127 123 122 121 126 133 138 142 143 145 147 152 160 167 163 153 146
172 171 173 177 182 181 178 176 173 172 176 177 174 175 177 175 171 166 162 160 156 157 160 160 156 153 156 159 161 163 168 172 169 169 164 152 147 146 147 148 137 120 116 129 137 138 133 126 120 120 123 123 122 118 109 98 99 107 109 114 128 138 140 143 153 155 143 135 133 134 131 126 126 126 128 134 138 140 134 125 128 135 138 134 128
172 170 171 173 178 179 177 176 174 176 180 178 174 175 174 168 163 159 159 162 163 164 168 167 158 154 156 158 161 161 160 159 158 158 149 146 150 147 136 136 134 126 119 123 127 129 131 131 131 131 131 131 129 124 115 105 104 106 102 100 116 135 141 145 154 153 138 133 136 137 132 124 121 119 118 119 120 124 118 106 110 115 118 118 115
175 174 173 174 177 178 177 177 177 180 181 176 176 176 168 162 161 163 167 170 171 172 172 167 160 158 156 157 160 158 154 154 154 149 141 147 154 149 139 140 141 138 125 122 127 133 138 141 142 141 138 137 136 133 126 118 115 109 101 95 102 121 137 146 154 151 135 131 133 131 127 122 117 113 109 102 96 104 108 104 105 107 106 107 106
Height
1495 1496 1497 1498 1501 1502 1504 1505 1507 1509 1510 1512 1513 1515 1516 1517 1518 1519 1520 1521 1522 1523 1523 1524 1524 1524 1525 1525 1527 1528 1529 1530 1531 1532 1533 1534 1535 1535 1536 1537 1538 1539 1540 1541 1541 1542 1542 1543 1543 1544 1544 1545 1546 1546 1547 1548 1548 1547 1548 1548 1548 1548 1548 1548 1548 1547 1546 1546 1547 1548 1548 1547 1546 1543 1540 1539 1538 1538 1540 1542 1544 1544 1545 1546 1546
1494 1497 1497 1498 1501 1502 1505 1506 1508 1509 1511 1512 1513 1515 1516 1517 1518 1520 1520 1521 1522 1523 1524 1524 1525 1525 1526 1526 1527 1528 1529 1531 1532 1533 1534 1535 1535 1536 1537 1538 1538 1539 1540 1541 1542 1543 1543 1544 1544 1545 1545 1546 1547 1548 1548 1549 1549 1549 1549 1549 1549 1550 1549 1549 1549 1548 1548 1547 1548 1549 1550 1550 1548 1546 1543 1541 1540 1540 1542 1544 1545 1546 1546 1547 1547
1495 1497 1498 1499 1501 1502 1505 1506 1508 1509 1511 1512 1514 1515 1516 1518 1519 1520 1521 1522 1523 1524 1525 1525 1526 1526 1526 1527 1528 1529 1530 1531 1532 1534 1534 1535 1536 1537 1537 1538 1539 1540 1541 1542 1543 1543 1544 1545 1545 1546 1546 1547 1548 1549 1549 1549 1549 1550 1550 1550 1551 1551 1551 1550 1550 1549 1549 1549 1549 1550 1551 1551 1550 1548 1545 1543 1542 1543 1544 1546 1547 1547 1548 1549 1549
1495 1497 1498 1500 1501 1503 1505 1507 1509 1510 1511 1512 1514 1515 1517 1518 1519 1521 1521 1523 1523 1524 1525 1526 1527 1527 1527 1528 1529 1530 1531 1532 1533 1534 1535 1536 1536 1537 1538 1539 1539 1540 1541 1542 1543 1544 1545 1546 1546 1546 1547 1548 1549 1549 1550 1551 1551 1551 1551 1552 1552 1552 1552 1551 1551 1550 1550 1550 1551 1552 1552 1553 1552 1550 1548 1546 1545 1544 1545 1547 1548 1548 1549 1550 1550
1496 1497 1499 1500 1501 1503 1505 1507 1509 1510 1512 1513 1514 1516 1517 1518 1520 1521 1522 1523 1524 1525 1526 1527 1527 1528 1529 1529 1530 1531 1532 1533 1534 1535 1536 1537 1537 1538 1539 1539 1540 1541 1542 1543 1544 1545 1546 1546 1547 1547 1548 1549 1550 1550 1551 1552 1552 1552 1553 1553 1553 1553 1553 1553 1552 1552 1552 1552 1553 1553 1553 1554 1553 1552 1550 1549 1547 1546 1547 1548 1549 1549 1550 1551 1552
1496 1498 1499 1500 1502 1504 1506 1507 1509 1510 1512 1514 1515 1517 1518 1519 1520 1521 1523 1524 1525 1526 1527 1527 1528 1529 1529 1530 1531 1532 1533 1534 1535 1535 1536 1537 1538 1539 1539 1540 1541 1541 1542 1543 1544 1545 1546 1547 1548 1548 1549 1550 1551 1551 1552 1552 1553 1553 1554 1554 1554 1554 1554 1554 1554 1554 1554 1554 1555 1554 1554 1555 1555 1554 1552 1551 1549 1549 1549 1550 1550 1550 1551 1552 1552
1496 1498 1500 1500 1502 1504 1506 1507 1509 1511 1512 1514 1516 1517 1518 1519 1520 1522 1523 1524 1525 1527 1527 1528 1529 1530 1530 1531 1532 1533 1534 1535 1536 1536 1537 1538 1539 1541 1541 1541 1542 1542 1542 1543 1545 1546 1547 1548 1549 1549 1550 1551 1552 1552 1553 1553 1554 1554 1555 1555 1555 1555 1555 1556 1555 1556 1556 1557 1557 1556 1556 1557 1557 1555 1554 1553 1551 1551 1550 1551 1551 1551 1552 1553 1553
1497 1499 1500 1501 1502 1504 1506 1508 1509 1511 1513 1515 1516 1517 1518 1520 1521 1522 1523 1525 1526 1527 1528 1529 1529 1530 1531 1532 1533 1534 1535 1536 1536 1537 1537 1538 1540 1541 1542 1543 1543 1543 1543 1544 1546 1547 1548 1549 1550 1550 1551 1552 1553 1553 1554 1554 1554 1555 1556 1556 1556 1556 1556 1556 1556 1557 1557 1558 1558 1558 1558 1558 1558 1557 1555 1554 1553 1552 1551 1551 1552 1552 1552 1553 1554
1497 1499 1500 1502 1503 1504 1506 1508 1510 1512 1513 1515 1516 1518 1519 1520 1521 1522 1524 1525 1526 1527 1528 1529 1530 1531 1532 1532 1533 1534 1535 1536 1537 1537 1538 1538 1540 1541 1543 1544 1544 1544 1544 1545 1546 1548 1549 1550 1551 1551 1552 1553 1554 1554 1555 1555 1555 1556 1556 1557 1557 1557 1557 1557 1557 1557 1557 1558 1559 1559 1559 1560 1560 1558 1557 1556 1555 1554 1553 1553 1553 1553 1553 1554 1554
1497 1499 1501 1502 1503 1505 1507 1509 1511 1512 1514 1515 1517 1518 1519 1520 1521 1523 1524 1526 1527 1528 1529 1530 1530 1531 1532 1533 1534 1535 1535 1536 1537 1538 1538 1539 1540 1541 1543 1545 1545 1545 1545 1546 1547 1548 1549 1550 1551 1552 1553 1554 1554 1555 1555 1556 1556 1557 1557 1557 1558 1558 1558 1557 1557 1557 1558 1559 1560 1561 1561 1561 1561 1560 1558 1557 1556 1555 1554 1554 1554 1554 1554 1555 1555
1498 1499 1501 1503 1504 1506 1508 1510 1511 1513 1515 1516 1517 1518 1519 1520 1522 1523 1525 1526 1528 1528 1529 1530 1531 1532 1533 1534 1535 1535 1536 1536 1537 1538 1539 1540 1541 1542 1544 1545 1546 1546 1546 1547 1548 1549 1550 1551 1552 1553 1553 1554 1555 1555 1556 1557 1557 1558 1558 1558 1559 1559 1559 1558 1557 1558 1559 1561 1562 1562 1563 1562 1562 1561 1560 1559 1558 1557 1556 1555 1555 1555 1555 1555 1555
1498 1500 1502 1504 1505 1507 1508 1510 1512 1514 1515 1516 1517 1518 1520 1521 1522 1524 1526 1527 1528 1529 1530 1531 1533 1534 1534 1535 1536 1536 1537 1537 1538 1539 1540 1541 1542 1542 1544 1545 1546 1547 1547 1548 1549 1550 1550 1551 1552 1553 1554 1555 1556 1556 1557 1558 1558 1559 1559 1560 1560 1560 1560 1559 1558 1558 1560 1562 1563 1564 1564 1563 1563 1562 1561 1560 1560 1559 1558 1557 1557 1556 1557 1556 1556
1499 1501 1502 1504 1505 1507 1508 1510 1512 1514 1515 1517 1518 1519 1520 1522 1523 1525 1527 1528 1529 1530 1531 1533 1534 1535 1535 1536 1537 1537 1538 1538 1539 1540 1541 1542 1543 1543 1544 1545 1547 1548 1548 1548 1549 1550 1551 1552 1553 1554 1554 1555 1556 1557 1558 1559 1559 1560 1560 1561 1561 1561 1561 1560 1559 1559 1560 1563 1564 1565 1565 1564 1564 1563 1562 1561 1561 1560 1560 1559 1558 1558 1558 1557 1557
1499 1501 1502 1504 1505 1507 1509 1511 1513 1514 1516 1517 1518 1519 1521 1523 1524 1526 1528 1528 1530 1531 1532 1534 1535 1536 1537 1537 1538 1539 1540 1540 1540 1541 1542 1543 1544 1544 1545 1546 1547 1548 1549 1549 1550 1551 1552 1552 1553 1554 1555 1555 1556 1557 1558 1559 1560 1561 1561 1561 1562 1562 1561 1560 1559 1560 1562 1564 1565 1565 1565 1565 1565 1564 1563 1563 1562 1561 1561 1560 1560 1560 1559 1559 1558
1500 1501 1503 1505 1506 1508 1509 1512 1513 1515 1516 1517 1519 1520 1522 1524 1525 1527 1528 1529 1531 1532 1533 1535 1536 1538 1539 1539 1540 1541 1541 1541 1542 1542 1543 1544 1545 1545 1546 1546 1547 1548 1549 1550 1550 1551 1552 1552 1553 1554 1554 1555 1556 1557 1558 1560 1560 1561 1562 1562 1562 1562 1562 1561 1560 1561 1563 1565 1565 1566 1566 1566 1565 1565 1564 1564 1563 1562 1562 1562 1561 1561 1561 1561 1560
1501 1502 1503 1505 1506 1508 1510 1512 1513 1515 1516 1518 1519 1521 1523 1524 1526 1527 1528 1530 1531 1532 1534 1535 1536 1538 1540 1541 1541 1542 1542 1543 1543 1543 1545 1546 1546 1547 1547 1547 1548 1548 1549 1549 1550 1551 1552 1552 1553 1553 1554 1555 1556 1557 1558 1560 1561 1562 1562 1563 1563 1563 1563 1563 1562 1562 1563 1565 1566 1566 1566 1566 1566 1566 1565 1565 1564 1563 1563 1563 1562 1562 1562 1562 1561
1502 1503 1504 1505 1507 1508 1510 1512 1513 1515 1517 1518 1520 1522 1523 1524 1526 1527 1529 1530 1531 1534 1535 1537 1537 1538 1540 1541 1542 1542 1543 1544 1544 1545 1546 1546 1547 1547 1547 1547 1548 1549 1549 1549 1550 1551 1552 1552 1553 1553 1554 1554 1555 1556 1558 1560 1561 1562 1563 1563 1564 1563 1564 1564 1562 1562 1564 1566 1567 1567 1566 1567 1566 1566 1566 1565 1565 1564 1564 1564 1563 1563 1563 1563 1563
1502 1504 1505 1506 1507 1508 1510 1512 1514 1516 1517 1519 1521 1522 1524 1525 1527 1528 1529 1530 1532 1535 1536 1538 1539 1539 1541 1541 1542 1543 1544 1544 1545 1546 1546 1547 1547 1548 1548 1548 1549 1549 1549 1549 1550 1551 1552 1552 1553 1553 1553 1554 1555 1556 1557 1559 1561 1562 1563 1564 1564 1564 1564 1564 1563 1563 1565 1566 1567 1567 1567 1567 1567 1567 1566 1566 1566 1565 1565 1565 1565 1564 1564 1564 1564
1502 1504 1505 1506 1507 1509 1510 1512 1514 1516 1518 1519 1521 1523 1524 1526 1528 1529 1530 1531 1533 1535 1537 1538 1539 1540 1541 1542 1541 1542 1544 1545 1545 1546 1547 1548 1548 1549 1549 1549 1550 1550 1549 1549 1550 1551 1551 1552 1552 1553 1553 1554 1555 1556 1557 1559 1561 1562 1563 1564 1564 1565 1565 1564 1563 1564 1565 1566 1567 1567 1567 1568 1568 1567 1567 1566 1566 1566 1566 1566 1565 1565 1565 1565 1565
1502 1504 1505 1506 1508 1509 1511 1513 1514 1516 1518 1520 1521 1523 1525 1527 1528 1529 1530 1532 1533 1536 1538 1539 1539 1540 1542 1542 1542 1542 1544 1545 1546 1547 1548 1549 1549 1550 1550 1550 1550 1550 1549 1549 1550 1551 1551 1551 1552 1552 1553 1554 1555 1556 1557 1559 1560 1562 1563 1564 1565 1565 1565 1564 1564 1565 1565 1566 1567 1567 1568 1568 1568 1567 1567 1567 1567 1567 1567 1567 1566 1566 1566 1566 1566
1502 1503 1505 1507 1508 1510 1511 1513 1514 1517 1519 1520 1522 1524 1525 1527 1528 1529 1530 1532 1534 1536 1538 1539 1539 1540 1541 1542 1542 1543 1544 1545 1546 1547 1548 1549 1549 1550 1550 1551 1550 1549 1549 1549 1550 1551 1551 1551 1552 1552 1553 1554 1555 1557 1558 1559 1560 1562 1563 1564 1565 1565 1565 1564 1564 1565 1565 1566 1567 1567 1568 1568 1568 1568 1568 1568 1567 1567 1567 1567 1567 1567 1567 1567 1567
1501 1503 1505 1507 1509 1510 1511 1513 1515 1517 1519 1521 1523 1524 1526 1527 1528 1530 1531 1533 1535 1536 1537 1539 1539 1540 1541 1542 1543 1543 1544 1545 1546 1548 1548 1549 1550 1550 1551 1551 1550 1549 1549 1550 1550 1551 1551 1552 1552 1553 1554 1555 1556 1558 1559 1560 1560 1562 1563 1564 1565 1565 1565 1565 1565 1566 1566 1566 1567 1567 1568 1568 1568 1568 1568 1568 1568 1568 1567 1568 1567 1568 1567 1567 1568
1501 1503 1505 1507 1509 1510 1511 1514 1516 1517 1520 1522 1523 1525 1526 1528 1529 1531 1532 1533 1534 1535 1537 1539 1540 1540 1541 1541 1542 1543 1544 1545 1546 1548 1549 1549 1550 1551 1551 1550 1549 1549 1549 1550 1550 1551 1552 1552 1553 1554 1555 1556 1557 1558 1559 1560 1560 1561 1563 1565 1565 1565 1566 1565 1565 1566 1566 1566 1567 1567 1567 1568 1568 1568 1568 1568 1568 1568 1567 1568 1568 1568 1568 1568 1568
1501 1503 1505 1507 1509 1510 1512 1514 1516 1518 1520 1522 1524 1525 1527 1529 1530 1531 1532 1533 1534 1536 1537 1539 1540 1541 1541 1542 1542 1543 1544 1545 1546 1548 1549 1549 1550 1551 1551 1550 1550 1550 1550 1550 1551 1552 1553 1553 1554 1555 1555 1556 1557 1558 1558 1559 1560 1561 1563 1564 1565 1565 1565 1564 1565 1566 1566 1566 1567 1567 1567 1567 1567 1568 1568 1568 1568 1568 1567 1567 1567 1568 1568 1568 1568
1500 1503 1505 1507 1508 1510 1513 1515 1516 1518 1519 1522 1524 1525 1527 1528 1529 1530 1532 1532 1534 1536 1537 1537 1539 1541 1542 1542 1543 1543 1545 1545 1546 1548 1549 1550 1550 1551 1550 1550 1550 1550 1550 1551 1552 1553 1554 1554 1555 1555 1555 1556 1556 1557 1557 1558 1560 1561 1563 1564 1565 1564 1564 1564 1565 1566 1566 1566 1566 1567 1567 1567 1567 1568 1568 1567 1568 1568 1567 1567 1567 1568 1568 1568 1568
1500 1503 1505 1506 1508 1511 1513 1514 1515 1516 1519 1522 1524 1525 1527 1528 1528 1530 1531 1532 1533 1535 1535 1536 1538 1541 1542 1542 1543 1544 1545 1546 1547 1548 1549 1549 1550 1550 1550 1550 1550 1550 1550 1551 1552 1553 1554 1554 1554 1555 1556 1556 1556 1556 1556 1557 1560 1561 1563 1564 1565 1564 1563 1564 1565 1566 1566 1566 1566 1567 1567 1568 1568 1568 1568 1567 1567 1568 1567 1567 1567 1567 1568 1568 1568
1500 1502 1505 1506 1508 1511 1513 1513 1514 1516 1518 1521 1524 1525 1526 1527 1528 1529 1530 1532 1533 1534 1535 1536 1538 1540 1541 1542 1543 1544 1545 1546 1547 1548 1548 1549 1549 1550 1550 1550 1550 1550 1550 1551 1552 1552 1553 1553 1554 1555 1556 1556 1556 1556 1557 1558 1560 1561 1562 1562 1564 1564 1563 1564 1565 1566 1566 1567 1567 1567 1568 1568 1568 1568 1568 1567 1567 1568 1567 1567 1567 1567 1568 1568 1568
1500 1503 1505 1507 1509 1512 1513 1514 1516 1517 1519 1521 1523 1524 1525 1526 1527 1529 1530 1532 1533 1534 1535 1537 1539 1540 1542 1543 1544 1545 1546 1547 1547 1547 1548 1548 1549 1549 1549 1549 1549 1550 1550 1551 1551 1552 1552 1553 1554 1555 1555 1556 1556 1557 1557 1558 1559 1560 1561 1561 1562 1562 1562 1563 1565 1566 1567 1568 1568 1568 1569 1569 1569 1569 1568 1568 1568 1568 1567 1567 1567 1567 1567 1568 1568
1500 1503 1504 1507 1511 1513 1514 1516 1517 1518 1520 1521 1523 1524 1524 1526 1528 1529 1531 1532 1533 1534 1535 1537 1539 1540 1542 1543 1544 1545 1546 1546 1547 1547 1548 1548 1549 1549 1549 1549 1549 1550 1551 1551 1551 1551 1552 1553 1553 1554 1555 1556 1556 1557 1557 1558 1559 1559 1560 1561 1561 1561 1561 1563 1564 1566 1568 1569 1570 1570 1570 1569 1569 1569 1569 1568 1568 1567 1567 1567 1567 1567 1567 1567 1568
1499 1501 1504 1507 1512 1514 1515 1517 1517 1518 1520 1522 1523 1524 1525 1527 1528 1530 1531 1532 1533 1534 1535 1537 1538 1540 1542 1543 1544 1545 1546 1546 1547 1547 1548 1548 1549 1549 1549 1549 1549 1550 1550 1551 1551 1552 1552 1553 1554 1554 1555 1556 1556 1557 1557 1558 1558 1559 1559 1560 1561 1562 1562 1563 1564 1565 1567 1568 1570 1570 1570 1570 1570 1570 1570 1569 1568 1568 1567 1567 1567 1567 1567 1568 1568
1499 1501 1504 1507 1511 1513 1515 1517 1517 1518 1521 1522 1524 1525 1526 1527 1529 1531 1531 1532 1533 1534 1536 1536 1538 1540 1542 1543 1544 1545 1546 1547 1547 1547 1548 1548 1549 1549 1549 1549 1549 1549 1550 1550 1551 1551 1552 1553 1554 1554 1555 1555 1556 1556 1557 1558 1558 1558 1559 1560 1561 1562 1562 1563 1564 1565 1565 1567 1569 1570 1570 1570 1570 1570 1570 1569 1569 1568 1568 1568 1568 1568 1568 1568 1568
1501 1501 1504 1508 1509 1511 1513 1515 1516 1518 1520 1522 1523 1525 1527 1528 1529 1531 1531 1532 1534 1535 1536 1537 1538 1540 1542 1543 1544 1545 1546 1547 1547 1548 1548 1548 1548 1548 1549 1549 1549 1549 1549 1550 1550 1551 1552 1553 1553 1554 1555 1555 1556 1556 1557 1557 1558 1558 1558 1559 1561 1562 1563 1564 1564 1564 1564 1565 1569 1571 1571 1571 1571 1570 1570 1570 1569 1568 1568 1568 1568 1568 1568 1568 1569
1502 1503 1506 1509 1509 1510 1513 1515 1516 1517 1519 1520 1522 1525 1527 1528 1529 1531 1532 1533 1534 1535 1535 1537 1539 1540 1541 1542 1543 1545 1546 1546 1547 1547 1547 1547 1548 1548 1548 1548 1549 1549 1549 1549 1549 1550 1551 1552 1553 1553 1554 1555 1555 1556 1556 1557 1557 1558 1558 1558 1560 1561 1562 1563 1564 1563 1564 1565 1567 1569 1570 1570 1571 1570 1570 1569 1569 1569 1569 1569 1569 1568 1568 1569 1569
1502 1505 1508 1509 1509 1511 1514 1515 1516 1517 1519 1520 1521 1525 1527 1528 1529 1531 1532 1533 1534 1535 1535 1537 1538 1539 1541 1542 1543 1544 1545 1546 1546 1547 1547 1547 1547 1547 1548 1548 1549 1548 1548 1549 1549 1550 1551 1551 1552 1553 1553 1554 1554 1555 1556 1556 1557 1557 1557 1558 1559 1560 1561 1562 1563 1563 1563 1565 1567 1568 1569 1569 1570 1570 1570 1569 1569 1569 1569 1569 1569 1569 1569 1569 1569
1506 1509 1511 1511 1510 1512 1513 1515 1516 1518 1520 1521 1522 1525 1527 1529 1530 1530 1532 1533 1534 1535 1536 1537 1538 1539 1540 1541 1542 1543 1545 1545 1546 1546 1546 1546 1547 1547 1548 1548 1548 1548 1548 1549 1549 1550 1550 1551 1551 1552 1553 1553 1554 1555 1556 1556 1556 1557 1557 1558 1559 1560 1560 1560 1561 1562 1563 1565 1566 1567 1568 1568 1568 1569 1569 1569 1569 1569 1569 1569 1569 1569 1569 1568 1568
1508 1509 1511 1512 1512 1513 1514 1516 1517 1519 1521 1522 1523 1525 1527 1528 1529 1530 1531 1533 1534 1535 1536 1537 1538 1540 1540 1541 1542 1543 1544 1545 1545 1545 1546 1546 1546 1547 1547 1547 1548 1548 1548 1548 1548 1549 1550 1550 1551 1551 1552 1553 1553 1554 1555 1556 1556 1556 1557 1558 1558 1559 1559 1559 1561 1562 1564 1565 1565 1566 1566 1567 1567 1567 1568 1568 1569 1569 1569 1569 1569 1568 1568 1568 1568
1505 1505 1506 1508 1511 1512 1515 1517 1519 1520 1521 1522 1523 1524 1526 1528 1529 1530 1531 1533 1534 1535 1536 1538 1539 1540 1540 1540 1541 1542 1543 1544 1544 1544 1545 1545 1545 1546 1546 1547 1547 1547 1547 1548 1548 1549 1549 1550 1550 1551 1551 1552 1553 1554 1554 1555 1556 1556 1557 1557 1557 1558 1558 1559 1560 1562 1563 1564 1565 1564 1564 1565 1566 1566 1567 1568 1568 1568 1568 1568 1568 1567 1567 1567 1567
1505 1506 1505 1506 1508 1511 1514 1517 1518 1519 1520 1521 1522 1524 1526 1527 1528 1530 1531 1532 1534 1535 1536 1537 1539 1540 1540 1540 1541 1542 1543 1543 1543 1543 1544 1544 1544 1545 1545 1546 1546 1547 1547 1547 1548 1548 1549 1549 1549 1550 1551 1551 1552 1553 1554 1555 1556 1556 1556 1556 1556 1557 1558 1559 1560 1561 1562 1563 1564 1564 1563 1564 1565 1565 1566 1567 1568 1568 1568 1568 1568 1568 1568 1567 1567
1507 1507 1506 1506 1507 1509 1512 1514 1516 1517 1518 1520 1521 1523 1525 1527 1528 1529 1530 1532 1533 1535 1536 1537 1538 1539 1539 1540 1541 1542 1542 1543 1543 1543 1543 1543 1543 1544 1544 1544 1545 1546 1546 1547 1547 1547 1548 1548 1549 1550 1550 1551 1552 1553 1554 1555 1555 1556 1556 1555 1555 1556 1558 1558 1559 1560 1561 1561 1562 1563 1563 1563 1564 1565 1566 1566 1567 1568 1568 1568 1568 1568 1568 1567 1568
1506 1506 1506 1506 1507 1509 1511 1513 1515 1516 1518 1519 1520 1522 1524 1526 1527 1528 1530 1531 1532 1534 1535 1536 1537 1539 1540 1541 1541 1542 1542 1542 1542 1542 1543 1543 1543 1543 1543 1544 1544 1545 1545 1546 1547 1547 1547 1548 1548 1549 1550 1551 1551 1553 1554 1555 1555 1556 1556 1555 1555 1556 1557 1558 1558 1559 1560 1560 1560 1561 1562 1563 1564 1565 1565 1566 1567 1568 1568 1568 1568 1568 1567 1568 1568
1504 1503 1503 1504 1506 1508 1511 1512 1515 1516 1517 1519 1519 1521 1522 1524 1526 1527 1529 1531 1532 1533 1534 1535 1537 1539 1540 1541 1541 1541 1541 1542 1542 1542 1542 1542 1542 1543 1543 1543 1544 1544 1545 1546 1546 1546 1547 1547 1548 1549 1550 1551 1551 1552 1554 1555 1555 1556 1556 1555 1555 1556 1557 1558 1558 1558 1559 1559 1560 1561 1562 1562 1563 1564 1565 1565 1566 1567 1568 1568 1568 1568 1568 1568 1568
1499 1500 1502 1503 1506 1508 1510 1512 1514 1516 1517 1518 1518 1520 1521 1523 1524 1526 1528 1530 1531 1532 1533 1535 1537 1539 1539 1540 1540 1541 1541 1541 1541 1541 1541 1541 1542 1542 1542 1543 1544 1544 1545 1546 1546 1546 1547 1547 1548 1549 1550 1551 1551 1552 1553 1554 1555 1555 1555 1555 1555 1557 1558 1558 1557 1558 1558 1559 1560 1561 1561 1562 1563 1563 1564 1565 1565 1566 1567 1568 1568 1568 1568 1568 1568
1497 1499 1501 1502 1505 1508 1510 1512 1514 1516 1517 1518 1518 1519 1521 1523 1525 1527 1528 1529 1531 1533 1534 1535 1537 1538 1539 1540 1540 1541 1541 1540 1540 1540 1540 1541 1542 1542 1543 1543 1544 1545 1545 1546 1546 1546 1547 1548 1549 1550 1550 1551 1551 1552 1553 1554 1555 1555 1555 1555 1556 1557 1558 1558 1557 1557 1558 1559 1560 1560 1561 1562 1562 1562 1563 1564 1565 1566 1566 1567 1567 1567 1567 1568 1568
1498 1499 1500 1502 1504 1506 1508 1510 1512 1514 1515 1517 1518 1519 1521 1524 1526 1528 1529 1530 1532 1533 1534 1535 1536 1537 1538 1539 1540 1540 1540 1540 1539 1540 1540 1541 1542 1542 1543 1544 1544 1545 1546 1546 1546 1547 1547 1549 1550 1550 1551 1551 1551 1552 1553 1554 1554 1555 1555 1556 1557 1558 1558 1558 1558 1558 1559 1559 1559 1560 1561 1561 1562 1562 1563 1564 1565 1566 1566 1566 1567 1567 1567 1567 1567
1499 1499 1500 1502 1503 1505 1507 1508 1510 1512 1514 1516 1518 1519 1520 1523 1525 1528 1530 1531 1532 1533 1533 1534 1535 1536 1537 1538 1539 1539 1539 1539 1539 1540 1540 1541 1542 1543 1544 1544 1545 1545 1546 1546 1547 1547 1548 1549 1550 1551 1551 1551 1552 1553 1553 1553 1554 1554 1555 1556 1557 1558 1558 1559 1559 1558 1559 1559 1559 1560 1561 1561 1562 1562 1563 1564 1565 1565 1566 1566 1567 1567 1567 1567 1567
1498 1500 1501 1502 1503 1504 1505 1507 1508 1510 1513 1514 1516 1517 1519 1521 1523 1525 1528 1529 1530 1531 1532 1533 1534 1535 1537 1538 1539 1539 1539 1539 1540 1540 1541 1542 1543 1544 1545 1545 1545 1546 1546 1547 1547 1548 1549 1549 1550 1551 1552 1552 1553 1553 1553 1553 1554 1554 1555 1556 1556 1556 1557 1559 1559 1559 1560 1560 1560 1561 1562 1562 1563 1563 1564 1564 1565 1565 1566 1566 1567 1567 1567 1567 1567
1497 1499 1501 1502 1502 1503 1504 1506 1507 1510 1512 1513 1514 1515 1517 1520 1522 1524 1526 1528 1529 1531 1532 1533 1534 1535 1536 1537 1538 1539 1539 1539 1540 1540 1541 1542 1543 1544 1545 1546 1546 1546 1547 1547 1548 1549 1549 1550 1551 1552 1552 1553 1554 1554 1554 1554 1554 1555 1555 1556 1556 1556 1557 1558 1558 1558 1559 1560 1561 1562 1563 1563 1563 1564 1564 1564 1565 1566 1566 1566 1567 1567 1567 1567 1567
1496 1498 1500 1500 1501 1502 1504 1506 1508 1510 1511 1512 1513 1515 1516 1518 1521 1524 1526 1528 1529 1530 1532 1533 1534 1535 1535 1536 1537 1538 1539 1539 1540 1541 1542 1543 1544 1545 1545 1546 1547 1547 1547 1548 1548 1549 1550 1551 1551 1552 1553 1554 1554 1555 1555 1555 1555 1555 1555 1556 1557 1557 1558 1558 1558 1558 1558 1560 1562 1563 1564 1564 1564 1565 1565 1565 1566 1566 1566 1567 1567 1567 1568 1568 1568
1496 1498 1499 1500 1501 1502 1504 1506 1508 1509 1511 1512 1513 1515 1517 1518 1521 1523 1525 1528 1529 1530 1531 1532 1533 1534 1534 1535 1537 1538 1539 1540 1540 1541 1542 1543 1545 1545 1545 1546 1547 1547 1548 1548 1549 1550 1550 1551 1552 1553 1554 1554 1555 1555 1556 1556 1556 1556 1556 1556 1557 1558 1559 1559 1560 1560 1559 1560 1563 1564 1565 1565 1565 1566 1567 1567 1567 1567 1567 1568 1568 1568 1568 1569 1569
1497 1498 1499 1500 1501 1502 1504 1505 1507 1509 1511 1512 1514 1515 1517 1519 1520 1522 1524 1526 1528 1530 1531 1532 1532 1533 1533 1535 1536 1537 1539 1539 1540 1541 1542 1544 1545 1546 1546 1547 1547 1548 1548 1549 1549 1550 1551 1552 1553 1553 1554 1554 1555 1556 1556 1556 1556 1557 1557 1557 1557 1557 1558 1559 1560 1560 1560 1561 1562 1564 1565 1566 1567 1568 1569 1569 1569 1569 1569 1569 1569 1569 1569 1569 1569
1497 1499 1500 1501 1502 1503 1504 1506 1507 1509 1511 1512 1514 1516 1518 1519 1520 1522 1523 1525 1527 1528 1530 1531 1531 1532 1533 1534 1536 1538 1539 1539 1540 1541 1542 1543 1545 1546 1547 1547 1548 1549 1549 1549 1550 1551 1551 1552 1553 1554 1554 1555 1555 1556 1556 1557 1557 1557 1557 1558 1558 1558 1558 1558 1559 1560 1560 1560 1562 1564 1566 1568 1569 1569 1570 1571 1571 1571 1571 1571 1571 1570 1570 1570 1570